Time,TemperatureF,DewpointF,PressureIn,WindDirection,WindDirectionDegrees,WindSpeedMPH,WindSpeedGustMPH,Humidity,HourlyPrecipIn,Conditions,Clouds,dailyrainin,SolarRadiationWatts/m^2,SoftwareType,DateUTC
2013-05-05 00:00:00,49.0,43.4,29.87,NW,316,3.5,3.5,81,0.00,CLR,OVC,0.00,0.0,WeatherDisplay:10.37,2013-05-04 23:00:00,
2013-05-05 00:05:00,48.9,43.3,29.88,North,4,1.0,4.0,81,0.00,SCT,OVC,0.00,0.0,WeatherDisplay:10.37,2013-05-04 23:05:00,
2013-05-05 00:10:00,48.9,43.3,29.88,NNE,18,1.0,2.0,81,0.00,SCT,OVC,0.00,0.0,WeatherDisplay:10.37,2013-05-04 23:10:00,
2013-05-05 00:15:00,49.0,43.4,29.88,NNE,19,1.0,3.0,81,0.00,SCT,OVC,0.00,0.0,WeatherDisplay:10.37,2013-05-04 23:15:00,
2013-05-05 00:20:00,49.0,43.4,29.88,NNW,338,2.3,2.3,81,0.00,SCT,OVC,0.00,0.0,WeatherDisplay:10.37,2013-05-04 23:20:00,
2013-05-05 00:25:00,49.0,43.4,29.88,NE,40,1.0,2.0,81,0.00,SCT,OVC,0.00,0.0,WeatherDisplay:10.37,2013-05-04 23:25:00,
2013-05-05 00:30:00,49.0,43.4,29.88,NNE,23,2.3,2.3,81,0.00,SCT,OVC,0.00,0.0,WeatherDisplay:10.37,2013-05-04 23:30:00,
2013-05-05 00:35:00,49.0,43.4,29.89,ENE,68,1.0,2.0,81,0.00,OVC,OVC,0.00,0.0,WeatherDisplay:10.37,2013-05-04 23:35:00,
2013-05-05 00:40:00,48.9,43.0,29.89,NNE,18,3.5,3.5,80,0.00,OVC,,0.00,0.0,WeatherDisplay:10.37,2013-05-04 23:40:00,
2013-05-05 00:45:00,48.9,43.3,29.89,ESE,103,1.2,1.2,81,0.00,OVC,,0.00,0.0,WeatherDisplay:10.37,2013-05-04 23:45:00,
2013-05-05 00:50:00,48.8,43.2,29.89,ENE,57,2.3,2.3,81,0.00,OVC,,0.00,0.0,WeatherDisplay:10.37,2013-05-04 23:50:00,
2013-05-05 00:55:00,48.7,43.1,29.89,East,90,1.0,2.0,81,0.00,OVC,OVC,0.00,0.0,WeatherDisplay:10.37,2013-05-04 23:55:00,
2013-05-05 01:00:00,48.7,43.1,29.89,ENE,59,2.3,2.3,81,0.00,OVC,,0.00,0.0,WeatherDisplay:10.37,2013-05-05 00:00:00,
2013-05-05 01:05:00,48.7,43.1,29.89,NE,49,2.3,2.3,81,0.00,BKN,OVC,0.00,0.0,WeatherDisplay:10.37,2013-05-05 00:05:00,
2013-05-05 01:10:00,48.6,43.0,29.89,SE,132,2.3,2.3,81,0.00,BKN,OVC,0.00,0.0,WeatherDisplay:10.37,2013-05-05 00:10:00,
2013-05-05 01:15:00,48.5,43.3,29.89,East,89,1.2,1.2,82,0.00,BKN,OVC,0.00,0.0,WeatherDisplay:10.37,2013-05-05 00:15:00,
2013-05-05 01:20:00,48.5,42.9,29.89,SE,127,1.2,1.2,81,0.00,BKN,OVC,0.00,0.0,WeatherDisplay:10.37,2013-05-05 00:20:00,
2013-05-05 01:25:00,48.6,43.0,29.89,North,5,1.2,1.2,81,0.00,BKN,OVC,0.00,0.0,WeatherDisplay:10.37,2013-05-05 00:25:00,
2013-05-05 01:30:00,48.7,43.1,29.89,North,5,3.5,3.5,81,0.00,BKN,OVC,0.00,0.0,WeatherDisplay:10.37,2013-05-05 00:30:00,
2013-05-05 01:35:00,48.7,43.1,29.89,NW,325,3.5,3.5,81,0.00,BKN,OVC,0.00,0.0,WeatherDisplay:10.37,2013-05-05 00:35:00,
2013-05-05 01:40:00,48.8,43.2,29.89,NE,40,1.2,1.2,81,0.00,BKN,OVC,0.00,0.0,WeatherDisplay:10.37,2013-05-05 00:40:00,
2013-05-05 01:45:00,49.0,43.4,29.89,NE,40,1.2,1.2,81,0.00,BKN,OVC,0.00,0.0,WeatherDisplay:10.37,2013-05-05 00:45:00,
2013-05-05 01:50:00,49.1,43.5,29.88,North,8,1.2,1.2,81,0.00,BKN,OVC,0.00,0.0,WeatherDisplay:10.37,2013-05-05 00:50:00,
2013-05-05 01:55:00,49.2,43.6,29.89,NNW,335,2.3,2.3,81,0.00,BKN,OVC,0.00,0.0,WeatherDisplay:10.37,2013-05-05 00:55:00,
2013-05-05 02:00:00,49.3,43.7,29.89,East,82,2.3,2.3,81,0.00,BKN,OVC,0.00,0.0,WeatherDisplay:10.37,2013-05-05 01:00:00,
2013-05-05 02:05:00,49.3,44.0,29.89,North,354,3.5,3.5,82,0.00,BKN,OVC,0.00,0.0,WeatherDisplay:10.37,2013-05-05 01:05:00,
2013-05-05 02:10:00,49.3,44.4,29.89,North,1,4.0,4.0,83,0.00,BKN,OVC,0.00,0.0,WeatherDisplay:10.37,2013-05-05 01:10:00,
2013-05-05 02:15:00,49.3,44.4,29.89,WSW,255,3.5,3.5,83,0.00,BKN,OVC,0.00,0.0,WeatherDisplay:10.37,2013-05-05 01:15:00,
2013-05-05 02:20:00,49.2,44.6,29.89,NNW,343,2.3,2.3,84,0.00,BKN,OVC,0.00,0.0,WeatherDisplay:10.37,2013-05-05 01:20:00,
2013-05-05 02:25:00,49.0,44.4,29.89,West,273,2.3,2.3,84,0.00,BKN,OVC,0.00,0.0,WeatherDisplay:10.37,2013-05-05 01:25:00,
2013-05-05 02:30:00,48.9,44.3,29.89,North,349,2.3,2.3,84,0.00,BKN,OVC,0.00,0.0,WeatherDisplay:10.37,2013-05-05 01:30:00,
2013-05-05 02:35:00,48.8,44.2,29.89,NNW,334,2.3,2.3,84,0.00,OVC,,0.00,0.0,WeatherDisplay:10.37,2013-05-05 01:35:00,
2013-05-05 02:40:00,48.7,44.4,29.89,North,354,2.3,2.3,85,0.00,OVC,,0.00,0.0,WeatherDisplay:10.37,2013-05-05 01:40:00,
2013-05-05 02:45:00,48.7,44.4,29.89,North,352,1.2,1.2,85,0.00,OVC,,0.00,0.0,WeatherDisplay:10.37,2013-05-05 01:45:00,
2013-05-05 02:50:00,48.6,44.3,29.89,NNW,338,1.2,1.2,85,0.00,OVC,,0.00,0.0,WeatherDisplay:10.37,2013-05-05 01:50:00,
2013-05-05 02:55:00,48.7,44.1,29.89,NNE,22,1.2,0.0,84,0.00,OVC,,0.00,0.0,WeatherDisplay:10.37,2013-05-05 01:55:00,
2013-05-05 03:00:00,48.7,44.1,29.89,South,188,1.2,0.0,84,0.00,OVC,,0.00,0.0,WeatherDisplay:10.37,2013-05-05 02:00:00,
2013-05-05 03:05:00,48.7,44.1,29.89,North,354,1.2,1.2,84,0.00,OVC,,0.00,0.0,WeatherDisplay:10.37,2013-05-05 02:05:00,
2013-05-05 03:10:00,48.8,44.2,29.89,NE,40,1.2,1.2,84,0.00,OVC,,0.00,0.0,WeatherDisplay:10.37,2013-05-05 02:10:00,
2013-05-05 03:15:00,48.8,44.2,29.89,NNE,33,1.2,1.2,84,0.00,OVC,,0.00,0.0,WeatherDisplay:10.37,2013-05-05 02:15:00,
2013-05-05 03:20:00,48.8,43.9,29.89,ESE,105,1.2,0.0,83,0.00,OVC,,0.00,0.0,WeatherDisplay:10.37,2013-05-05 02:20:00,
2013-05-05 03:25:00,48.9,44.0,29.89,ESE,108,8.0,8.0,83,0.00,OVC,,0.00,0.0,WeatherDisplay:10.37,2013-05-05 02:25:00,
2013-05-05 03:30:00,48.8,43.9,29.89,SSE,166,0.0,0.0,83,0.00,OVC,,0.00,0.0,WeatherDisplay:10.37,2013-05-05 02:30:00,
2013-05-05 03:35:00,48.8,44.2,29.89,WNW,291,1.2,1.2,84,0.00,OVC,,0.00,0.0,WeatherDisplay:10.37,2013-05-05 02:35:00,
2013-05-05 03:40:00,48.8,44.2,29.89,NW,325,8.0,8.0,84,0.00,OVC,,0.00,0.0,WeatherDisplay:10.37,2013-05-05 02:40:00,
2013-05-05 03:45:00,48.7,44.1,29.89,ENE,59,8.0,8.0,84,0.00,OVC,,0.00,0.0,WeatherDisplay:10.37,2013-05-05 02:45:00,
2013-05-05 03:50:00,48.6,44.0,29.89,North,349,8.0,8.0,84,0.00,OVC,,0.00,0.0,WeatherDisplay:10.37,2013-05-05 02:50:00,
2013-05-05 03:55:00,48.5,43.9,29.89,ENE,70,1.2,0.0,84,0.00,OVC,,0.00,0.0,WeatherDisplay:10.37,2013-05-05 02:55:00,
2013-05-05 04:00:00,48.7,44.1,29.89,NE,34,1.2,0.0,84,0.00,OVC,,0.00,0.0,WeatherDisplay:10.37,2013-05-05 03:00:00,
2013-05-05 04:05:00,48.8,43.9,29.89,NE,37,3.5,3.5,83,0.00,BKN,OVC,0.00,0.0,WeatherDisplay:10.37,2013-05-05 03:05:00,
2013-05-05 04:10:00,48.9,44.0,29.89,NE,36,2.3,2.3,83,0.00,BKN,OVC,0.00,0.0,WeatherDisplay:10.37,2013-05-05 03:10:00,
2013-05-05 04:15:00,49.0,44.1,29.89,East,86,2.3,2.3,83,0.00,BKN,OVC,0.00,0.0,WeatherDisplay:10.37,2013-05-05 03:15:00,
2013-05-05 04:20:00,49.0,44.1,29.89,NE,46,1.2,0.0,83,0.00,BKN,OVC,0.00,0.0,WeatherDisplay:10.37,2013-05-05 03:20:00,
2013-05-05 04:25:00,49.1,43.8,29.89,ENE,72,1.2,1.2,82,0.00,BKN,OVC,0.00,0.0,WeatherDisplay:10.37,2013-05-05 03:25:00,
2013-05-05 04:30:00,49.1,43.8,29.89,SW,214,0.0,0.1,82,0.00,BKN,OVC,0.00,0.0,WeatherDisplay:10.37,2013-05-05 03:30:00,
2013-05-05 04:35:00,49.0,44.1,29.89,ESE,104,1.2,1.2,83,0.00,OVC,,0.00,0.0,WeatherDisplay:10.37,2013-05-05 03:35:00,
2013-05-05 04:40:00,48.7,43.8,29.89,ESE,122,1.2,1.2,83,0.00,OVC,,0.00,0.0,WeatherDisplay:10.37,2013-05-05 03:40:00,
2013-05-05 04:46:00,48.6,43.7,29.89,ESE,121,1.2,1.2,83,0.00,OVC,,0.00,0.0,WeatherDisplay:10.37,2013-05-05 03:46:00,
2013-05-05 04:51:00,48.5,43.9,29.89,SW,231,2.3,2.3,84,0.00,OVC,,0.00,0.0,WeatherDisplay:10.37,2013-05-05 03:51:00,
2013-05-05 04:56:00,48.4,43.8,29.89,East,92,1.2,1.2,84,0.00,OVC,,0.00,0.0,WeatherDisplay:10.37,2013-05-05 03:56:00,
2013-05-05 05:01:00,48.3,43.7,29.89,NE,41,2.3,2.3,84,0.00,FEW,OVC,0.00,0.0,WeatherDisplay:10.37,2013-05-05 04:01:00,
2013-05-05 05:06:00,48.3,43.7,29.89,ESE,104,2.3,2.3,84,0.00,FEW,OVC,0.00,0.0,WeatherDisplay:10.37,2013-05-05 04:06:00,
2013-05-05 05:11:00,48.3,43.7,29.90,SE,141,3.5,3.5,84,0.00,FEW,OVC,0.00,0.0,WeatherDisplay:10.37,2013-05-05 04:11:00,
2013-05-05 05:16:00,48.2,43.6,29.90,SE,139,2.3,2.3,84,0.00,FEW,OVC,0.00,0.0,WeatherDisplay:10.37,2013-05-05 04:16:00,
2013-05-05 05:21:00,48.0,43.7,29.90,SE,139,2.3,2.3,85,0.00,FEW,OVC,0.00,0.0,WeatherDisplay:10.37,2013-05-05 04:21:00,
2013-05-05 05:26:00,48.0,43.7,29.90,ESE,121,2.3,2.3,85,0.00,FEW,OVC,0.00,0.0,WeatherDisplay:10.37,2013-05-05 04:26:00,
2013-05-05 05:31:00,48.0,43.7,29.90,ESE,123,2.3,2.3,85,0.00,SCT,OVC,0.00,0.0,WeatherDisplay:10.37,2013-05-05 04:31:00,
2013-05-05 05:36:00,48.0,43.7,29.90,SW,221,1.2,1.2,85,0.00,SCT,OVC,0.00,0.0,WeatherDisplay:10.37,2013-05-05 04:36:00,
2013-05-05 05:41:00,48.0,43.7,29.90,West,270,1.2,0.0,85,0.00,SCT,OVC,0.00,0.0,WeatherDisplay:10.37,2013-05-05 04:41:00,
2013-05-05 05:46:00,48.0,43.7,29.90,NNE,15,1.2,1.2,85,0.00,SCT,OVC,0.00,0.0,WeatherDisplay:10.37,2013-05-05 04:46:00,
2013-05-05 05:51:00,48.0,43.7,29.90,East,88,1.2,1.2,85,0.00,SCT,OVC,0.00,0.0,WeatherDisplay:10.37,2013-05-05 04:51:00,
2013-05-05 05:56:00,48.0,43.7,29.91,SSE,165,1.2,1.2,85,0.00,SCT,OVC,0.00,0.0,WeatherDisplay:10.37,2013-05-05 04:56:00,
2013-05-05 06:01:00,47.9,43.6,29.91,South,190,1.2,1.2,85,0.00,SCT,OVC,0.00,0.0,WeatherDisplay:10.37,2013-05-05 05:01:00,
2013-05-05 06:06:00,48.0,43.7,29.91,ESE,123,1.2,1.2,85,0.00,SCT,OVC,0.00,0.0,WeatherDisplay:10.37,2013-05-05 05:06:00,
2013-05-05 06:11:00,48.1,43.8,29.91,ENE,68,2.3,2.3,85,0.00,SCT,OVC,0.00,0.0,WeatherDisplay:10.37,2013-05-05 05:11:00,
2013-05-05 06:16:00,48.3,43.7,29.91,NNW,342,3.5,3.5,84,0.00,SCT,OVC,0.00,0.0,WeatherDisplay:10.37,2013-05-05 05:16:00,
2013-05-05 06:21:00,48.4,43.8,29.91,ENE,63,2.3,2.3,84,0.00,SCT,OVC,0.00,0.0,WeatherDisplay:10.37,2013-05-05 05:21:00,
2013-05-05 06:26:00,48.4,43.8,29.92,ENE,57,2.3,2.3,84,0.00,SCT,OVC,0.00,0.0,WeatherDisplay:10.37,2013-05-05 05:26:00,
2013-05-05 06:31:00,48.4,43.8,29.92,North,8,1.2,1.2,84,0.00,BKN,OVC,0.00,0.0,WeatherDisplay:10.37,2013-05-05 05:31:00,
2013-05-05 06:36:00,48.4,43.8,29.92,NE,41,1.2,1.2,84,0.00,BKN,OVC,0.00,0.0,WeatherDisplay:10.37,2013-05-05 05:36:00,
2013-05-05 06:41:00,48.4,43.8,29.92,NNW,328,1.2,1.2,84,0.00,BKN,OVC,0.00,0.0,WeatherDisplay:10.37,2013-05-05 05:41:00,
2013-05-05 06:46:00,48.4,43.8,29.92,NE,43,1.2,1.2,84,0.00,BKN,OVC,0.00,0.0,WeatherDisplay:10.37,2013-05-05 05:46:00,
2013-05-05 06:51:00,48.4,44.1,29.92,North,354,1.2,0.0,85,0.00,BKN,OVC,0.00,0.0,WeatherDisplay:10.37,2013-05-05 05:51:00,
2013-05-05 06:56:00,48.5,44.2,29.92,NE,50,1.2,0.0,85,0.00,BKN,OVC,0.00,0.0,WeatherDisplay:10.37,2013-05-05 05:56:00,
2013-05-05 07:01:00,48.5,44.2,29.93,SE,132,1.2,1.2,85,0.00,SCT,OVC,0.00,0.0,WeatherDisplay:10.37,2013-05-05 06:01:00,
2013-05-05 07:06:00,48.7,44.4,29.93,ESE,110,1.2,1.2,85,0.00,SCT,OVC,0.00,0.0,WeatherDisplay:10.37,2013-05-05 06:06:00,
2013-05-05 07:11:00,48.7,44.4,29.93,East,93,3.5,3.5,85,0.00,SCT,OVC,0.00,0.0,WeatherDisplay:10.37,2013-05-05 06:11:00,
2013-05-05 07:16:00,48.7,44.4,29.93,SE,143,1.2,1.2,85,0.00,SCT,OVC,0.00,0.0,WeatherDisplay:10.37,2013-05-05 06:16:00,
2013-05-05 07:21:00,48.9,44.6,29.94,NNE,24,2.0,2.0,85,0.00,SCT,OVC,0.00,0.0,WeatherDisplay:10.37,2013-05-05 06:21:00,
2013-05-05 07:26:00,49.0,44.4,29.93,North,1,1.2,1.4,84,0.00,SCT,OVC,0.00,0.0,WeatherDisplay:10.37,2013-05-05 06:26:00,
2013-05-05 07:32:00,49.1,44.5,29.93,NNW,342,2.3,2.3,84,0.00,SCT,OVC,0.00,0.0,WeatherDisplay:10.37,2013-05-05 06:32:00,
2013-05-05 07:37:00,49.2,44.3,29.93,NE,36,2.3,2.3,83,0.00,SCT,OVC,0.00,0.0,WeatherDisplay:10.37,2013-05-05 06:37:00,
2013-05-05 07:42:00,49.4,44.5,29.94,East,101,2.3,2.3,83,0.00,SCT,OVC,0.00,0.0,WeatherDisplay:10.37,2013-05-05 06:42:00,
2013-05-05 07:47:00,49.7,44.7,29.94,NNE,16,8.1,8.1,83,0.00,SCT,OVC,0.00,0.0,WeatherDisplay:10.37,2013-05-05 06:47:00,
2013-05-05 07:52:00,49.9,44.6,29.94,ENE,60,1.2,1.2,82,0.00,SCT,OVC,0.00,0.0,WeatherDisplay:10.37,2013-05-05 06:52:00,
2013-05-05 07:57:00,50.2,44.9,29.94,SE,129,3.5,3.5,82,0.00,SCT,OVC,0.00,0.0,WeatherDisplay:10.37,2013-05-05 06:57:00,
2013-05-05 08:02:00,50.5,45.2,29.94,East,88,1.2,1.2,82,0.00,FEW,OVC,0.00,0.0,WeatherDisplay:10.37,2013-05-05 07:02:00,
2013-05-05 08:07:00,50.6,45.3,29.94,SE,143,1.2,0.0,82,0.00,FEW,OVC,0.00,0.0,WeatherDisplay:10.37,2013-05-05 07:07:00,
2013-05-05 08:12:00,50.6,45.0,29.94,WNW,293,3.5,3.5,81,0.00,FEW,OVC,0.00,0.0,WeatherDisplay:10.37,2013-05-05 07:12:00,
2013-05-05 08:17:00,50.8,45.2,29.94,NNE,27,2.3,2.3,81,0.00,FEW,OVC,0.00,0.0,WeatherDisplay:10.37,2013-05-05 07:17:00,
2013-05-05 08:22:00,51.0,45.4,29.94,NE,41,1.2,1.2,81,0.00,FEW,OVC,0.00,0.0,WeatherDisplay:10.37,2013-05-05 07:22:00,
2013-05-05 08:27:00,51.4,44.8,29.94,ENE,72,3.5,3.5,78,0.00,FEW,OVC,0.00,0.0,WeatherDisplay:10.37,2013-05-05 07:27:00,
2013-05-05 08:32:00,51.9,44.6,29.94,NNW,333,5.8,5.8,76,0.00,SCT,OVC,0.00,0.0,WeatherDisplay:10.37,2013-05-05 07:32:00,
2013-05-05 08:37:00,52.4,45.1,29.94,NNW,338,3.5,3.5,76,0.00,SCT,OVC,0.00,0.0,WeatherDisplay:10.37,2013-05-05 07:37:00,
2013-05-05 08:42:00,52.9,45.2,29.94,NW,321,3.5,3.5,75,0.00,SCT,OVC,0.00,0.0,WeatherDisplay:10.37,2013-05-05 07:42:00,
2013-05-05 08:47:00,53.3,45.6,29.94,NNW,338,3.5,3.5,75,0.00,SCT,OVC,0.00,0.0,WeatherDisplay:10.37,2013-05-05 07:47:00,
2013-05-05 08:52:00,53.9,45.8,29.94,NW,326,3.5,3.5,74,0.00,SCT,OVC,0.00,0.0,WeatherDisplay:10.37,2013-05-05 07:52:00,
2013-05-05 08:57:00,54.1,46.0,29.94,WNW,294,3.0,3.0,74,0.00,SCT,OVC,0.00,0.0,WeatherDisplay:10.37,2013-05-05 07:57:00,
2013-05-05 09:02:00,54.4,46.6,29.94,NNE,25,2.3,2.3,75,0.00,SCT,OVC,0.00,0.0,WeatherDisplay:10.37,2013-05-05 08:02:00,
2013-05-05 09:07:00,54.9,47.1,29.94,NW,314,3.5,3.5,75,0.00,SCT,OVC,0.00,0.0,WeatherDisplay:10.37,2013-05-05 08:07:00,
2013-05-05 09:12:00,54.9,46.4,29.94,NW,307,3.0,3.0,73,0.00,SCT,OVC,0.00,0.0,WeatherDisplay:10.37,2013-05-05 08:12:00,
2013-05-05 09:17:00,55.1,48.0,29.94,North,352,2.3,2.3,77,0.00,SCT,OVC,0.00,0.0,WeatherDisplay:10.37,2013-05-05 08:17:00,
2013-05-05 09:22:00,55.4,47.6,29.95,NE,34,2.3,2.3,75,0.00,SCT,OVC,0.00,0.0,WeatherDisplay:10.37,2013-05-05 08:22:00,
2013-05-05 09:27:00,55.5,48.1,29.95,NNW,336,2.3,2.3,76,0.00,SCT,OVC,0.00,0.0,WeatherDisplay:10.37,2013-05-05 08:27:00,
2013-05-05 09:32:00,55.9,49.1,29.94,North,4,2.3,2.3,78,0.00,SCT,OVC,0.00,0.0,WeatherDisplay:10.37,2013-05-05 08:32:00,
2013-05-05 09:37:00,56.1,48.3,29.94,East,95,3.5,3.5,75,0.00,SCT,OVC,0.00,0.0,WeatherDisplay:10.37,2013-05-05 08:37:00,
2013-05-05 09:42:00,56.4,48.2,29.95,WNW,288,3.5,3.5,74,0.00,SCT,OVC,0.00,0.0,WeatherDisplay:10.37,2013-05-05 08:42:00,
2013-05-05 09:47:00,56.7,48.9,29.94,East,86,2.3,2.3,75,0.00,SCT,OVC,0.00,0.0,WeatherDisplay:10.37,2013-05-05 08:47:00,
2013-05-05 09:52:00,56.5,47.9,29.95,NNE,19,3.5,3.5,73,0.00,SCT,OVC,0.00,0.0,WeatherDisplay:10.37,2013-05-05 08:52:00,
2013-05-05 09:57:00,56.2,47.7,29.94,NNE,25,3.5,3.5,73,0.00,SCT,OVC,0.00,0.0,WeatherDisplay:10.37,2013-05-05 08:57:00,
2013-05-05 10:02:00,55.9,48.1,29.95,NNE,26,2.3,2.3,75,0.00,BKN,OVC,0.00,0.0,WeatherDisplay:10.37,2013-05-05 09:02:00,
2013-05-05 10:07:00,55.6,48.2,29.95,ENE,75,2.3,2.3,76,0.00,BKN,OVC,0.00,0.0,WeatherDisplay:10.37,2013-05-05 09:07:00,
2013-05-05 10:12:00,55.6,48.5,29.95,North,4,2.3,2.3,77,0.00,BKN,OVC,0.00,0.0,WeatherDisplay:10.37,2013-05-05 09:12:00,
2013-05-05 10:17:00,55.7,48.9,29.95,SE,124,3.5,3.5,78,0.00,BKN,OVC,0.00,0.0,WeatherDisplay:10.37,2013-05-05 09:17:00,
2013-05-05 10:22:00,55.9,49.5,29.95,SE,140,5.8,5.8,79,0.00,BKN,OVC,0.00,0.0,WeatherDisplay:10.37,2013-05-05 09:22:00,
2013-05-05 10:27:00,56.8,50.4,29.95,SE,135,9.2,9.2,79,0.00,BKN,OVC,0.00,0.0,WeatherDisplay:10.37,2013-05-05 09:27:00,
2013-05-05 10:32:00,56.7,50.3,29.95,NE,51,3.5,3.5,79,0.00,SCT,OVC,0.00,0.0,WeatherDisplay:10.37,2013-05-05 09:32:00,
2013-05-05 10:37:00,57.1,50.3,29.95,SE,126,2.3,2.3,78,0.00,SCT,OVC,0.00,0.0,WeatherDisplay:10.37,2013-05-05 09:37:00,
2013-05-05 10:42:00,58.0,50.1,29.95,WSW,256,3.5,3.5,75,0.00,SCT,OVC,0.00,0.0,WeatherDisplay:10.37,2013-05-05 09:42:00,
2013-05-05 10:47:00,58.6,48.8,29.95,North,8,2.3,2.3,70,0.00,SCT,OVC,0.00,0.0,WeatherDisplay:10.37,2013-05-05 09:47:00,
2013-05-05 10:52:00,59.1,48.9,29.95,ENE,57,2.3,2.3,69,0.00,SCT,OVC,0.00,0.0,WeatherDisplay:10.37,2013-05-05 09:52:00,
2013-05-05 10:57:00,59.2,49.4,29.95,North,355,2.3,2.3,70,0.00,SCT,OVC,0.00,0.0,WeatherDisplay:10.37,2013-05-05 09:57:00,
2013-05-05 11:02:00,59.0,48.4,29.95,North,351,3.5,3.5,68,0.00,SCT,OVC,0.00,0.0,WeatherDisplay:10.37,2013-05-05 10:02:00,
2013-05-05 11:07:00,58.6,48.8,29.95,North,1,3.5,3.5,70,0.00,SCT,OVC,0.00,0.0,WeatherDisplay:10.37,2013-05-05 10:07:00,
2013-05-05 11:12:00,58.2,48.5,29.95,NNE,19,3.5,3.5,70,0.00,SCT,OVC,0.00,0.0,WeatherDisplay:10.37,2013-05-05 10:12:00,
2013-05-05 11:17:00,58.2,49.6,29.95,SE,124,1.2,1.2,73,0.00,SCT,OVC,0.00,0.0,WeatherDisplay:10.37,2013-05-05 10:17:00,
2013-05-05 11:22:00,58.1,48.7,29.95,ESE,111,3.5,3.5,71,0.00,SCT,OVC,0.00,0.0,WeatherDisplay:10.37,2013-05-05 10:22:00,
2013-05-05 11:27:00,58.0,48.6,29.95,ENE,69,5.8,5.8,71,0.00,SCT,OVC,0.00,0.0,WeatherDisplay:10.37,2013-05-05 10:27:00,
2013-05-05 11:32:00,57.8,48.8,29.95,NW,321,4.6,4.6,72,0.00,BKN,OVC,0.00,0.0,WeatherDisplay:10.37,2013-05-05 10:32:00,
2013-05-05 11:37:00,57.7,49.1,29.95,North,5,2.3,2.3,73,0.00,BKN,OVC,0.00,0.0,WeatherDisplay:10.37,2013-05-05 10:37:00,
2013-05-05 11:42:00,57.6,49.4,29.95,ESE,114,2.3,2.3,74,0.00,BKN,OVC,0.00,0.0,WeatherDisplay:10.37,2013-05-05 10:42:00,
2013-05-05 11:47:00,57.5,49.6,29.95,East,95,4.0,4.0,75,0.00,BKN,OVC,0.00,0.0,WeatherDisplay:10.37,2013-05-05 10:47:00,
2013-05-05 11:52:00,57.4,50.6,29.95,NNE,32,3.5,3.5,78,0.00,BKN,OVC,0.00,0.0,WeatherDisplay:10.37,2013-05-05 10:52:00,
2013-05-05 11:57:00,57.2,51.1,29.95,SW,233,3.5,3.5,80,0.00,BKN,OVC,0.00,0.0,WeatherDisplay:10.37,2013-05-05 10:57:00,
2013-05-05 12:02:00,57.2,51.1,29.95,WSW,246,2.3,2.3,80,0.00,BKN,OVC,0.00,0.0,WeatherDisplay:10.37,2013-05-05 11:02:00,
2013-05-05 12:07:00,57.1,51.3,29.95,West,270,2.3,2.3,81,0.00,BKN,OVC,0.00,0.0,WeatherDisplay:10.37,2013-05-05 11:07:00,
2013-05-05 12:12:00,57.0,51.9,29.95,SW,233,3.5,3.5,83,0.00,BKN,OVC,0.00,0.0,WeatherDisplay:10.37,2013-05-05 11:12:00,
2013-05-05 12:17:00,56.8,52.0,29.95,SE,124,3.5,3.5,84,0.00,BKN,OVC,0.00,0.0,WeatherDisplay:10.37,2013-05-05 11:17:00,
2013-05-05 12:22:00,56.7,51.6,29.95,SSE,150,2.3,2.3,83,0.00,BKN,OVC,0.00,0.0,WeatherDisplay:10.37,2013-05-05 11:22:00,
2013-05-05 12:27:00,56.8,52.0,29.95,SSE,159,6.0,6.0,84,0.00,BKN,OVC,0.00,0.0,WeatherDisplay:10.37,2013-05-05 11:27:00,
2013-05-05 12:32:00,57.0,52.2,29.95,ESE,107,2.3,2.3,84,0.00,BKN,OVC,0.00,0.0,WeatherDisplay:10.37,2013-05-05 11:32:00,
2013-05-05 12:37:00,57.1,52.3,29.95,East,101,4.6,4.6,84,0.00,BKN,OVC,0.00,0.0,WeatherDisplay:10.37,2013-05-05 11:37:00,
2013-05-05 12:42:00,57.1,52.3,29.95,NNE,18,2.3,2.3,84,0.00,BKN,OVC,0.00,0.0,WeatherDisplay:10.37,2013-05-05 11:42:00,
2013-05-05 12:47:00,57.1,51.7,29.95,NE,54,3.5,3.5,82,0.00,BKN,OVC,0.00,0.0,WeatherDisplay:10.37,2013-05-05 11:47:00,
2013-05-05 12:52:00,57.1,51.7,29.95,South,186,3.5,3.5,82,0.00,BKN,OVC,0.00,0.0,WeatherDisplay:10.37,2013-05-05 11:52:00,
2013-05-05 12:57:00,57.3,52.2,29.95,ESE,106,2.3,2.3,83,0.00,BKN,OVC,0.00,0.0,WeatherDisplay:10.37,2013-05-05 11:57:00,
2013-05-05 13:02:00,57.5,52.4,29.95,South,172,6.9,6.9,83,0.00,BKN,OVC,0.00,0.0,WeatherDisplay:10.37,2013-05-05 12:02:00,
2013-05-05 13:07:00,57.6,52.5,29.95,NNE,12,3.5,3.5,83,0.00,BKN,OVC,0.00,0.0,WeatherDisplay:10.37,2013-05-05 12:07:00,
2013-05-05 13:12:00,57.8,52.7,29.95,NE,46,3.5,3.5,83,0.00,BKN,OVC,0.00,0.0,WeatherDisplay:10.37,2013-05-05 12:12:00,
2013-05-05 13:17:00,58.0,52.5,29.95,NNE,20,2.3,2.3,82,0.00,BKN,OVC,0.00,0.0,WeatherDisplay:10.37,2013-05-05 12:17:00,
2013-05-05 13:22:00,58.3,53.2,29.95,NE,43,1.2,1.2,83,0.00,BKN,OVC,0.00,0.0,WeatherDisplay:10.37,2013-05-05 12:22:00,
2013-05-05 13:27:00,58.7,53.2,29.95,East,101,2.3,2.3,82,0.00,BKN,OVC,0.00,0.0,WeatherDisplay:10.37,2013-05-05 12:27:00,
2013-05-05 13:32:00,59.0,53.5,29.95,North,1,2.3,2.3,82,0.00,BKN,OVC,0.00,0.0,WeatherDisplay:10.37,2013-05-05 12:32:00,
2013-05-05 13:37:00,59.5,53.7,29.95,NW,323,5.8,5.8,81,0.00,BKN,OVC,0.00,0.0,WeatherDisplay:10.37,2013-05-05 12:37:00,
2013-05-05 13:42:00,60.0,53.8,29.94,ENE,64,3.5,3.5,80,0.00,BKN,OVC,0.00,0.0,WeatherDisplay:10.37,2013-05-05 12:42:00,
2013-05-05 13:47:00,60.0,53.5,29.95,NE,45,3.5,3.5,79,0.00,BKN,OVC,0.00,0.0,WeatherDisplay:10.37,2013-05-05 12:47:00,
2013-05-05 13:53:00,59.8,53.3,29.94,NNE,19,3.0,3.0,79,0.00,BKN,OVC,0.00,0.0,WeatherDisplay:10.37,2013-05-05 12:53:00,
2013-05-05 13:58:00,59.8,53.3,29.95,North,350,4.6,4.6,79,0.00,BKN,OVC,0.00,0.0,WeatherDisplay:10.37,2013-05-05 12:58:00,
2013-05-05 14:03:00,59.6,53.1,29.95,NNW,343,4.6,4.6,79,0.00,BKN,OVC,0.00,0.0,WeatherDisplay:10.37,2013-05-05 13:03:00,
2013-05-05 14:08:00,59.7,53.2,29.95,North,350,4.0,4.0,79,0.00,BKN,OVC,0.00,0.0,WeatherDisplay:10.37,2013-05-05 13:08:00,
2013-05-05 14:13:00,59.8,53.3,29.95,SW,228,5.0,5.0,79,0.00,BKN,OVC,0.00,0.0,WeatherDisplay:10.37,2013-05-05 13:13:00,
2013-05-05 14:18:00,60.2,53.7,29.94,North,349,5.8,5.8,79,0.00,BKN,OVC,0.00,0.0,WeatherDisplay:10.37,2013-05-05 13:18:00,
2013-05-05 14:23:00,60.2,53.3,29.95,North,352,3.5,3.5,78,0.00,BKN,OVC,0.00,0.0,WeatherDisplay:10.37,2013-05-05 13:23:00,
2013-05-05 14:28:00,59.9,53.0,29.95,ENE,68,4.0,4.0,78,0.00,BKN,OVC,0.00,0.0,WeatherDisplay:10.37,2013-05-05 13:28:00,
2013-05-05 14:33:00,59.3,52.8,29.95,SW,221,3.5,3.5,79,0.00,BKN,OVC,0.00,0.0,WeatherDisplay:10.37,2013-05-05 13:33:00,
2013-05-05 14:38:00,59.1,52.9,29.95,SE,129,2.3,2.3,80,0.00,BKN,OVC,0.00,0.0,WeatherDisplay:10.37,2013-05-05 13:38:00,
2013-05-05 14:43:00,58.9,52.7,29.95,ENE,71,3.5,3.5,80,0.00,BKN,OVC,0.00,0.0,WeatherDisplay:10.37,2013-05-05 13:43:00,
2013-05-05 14:48:00,58.7,52.5,29.96,West,274,3.5,3.5,80,0.00,BKN,OVC,0.00,0.0,WeatherDisplay:10.37,2013-05-05 13:48:00,
2013-05-05 14:53:00,58.6,52.4,29.96,SE,134,4.0,4.0,80,0.00,BKN,OVC,0.00,0.0,WeatherDisplay:10.37,2013-05-05 13:53:00,
2013-05-05 14:58:00,58.5,52.7,29.96,North,9,3.5,3.5,81,0.00,BKN,OVC,0.00,0.0,WeatherDisplay:10.37,2013-05-05 13:58:00,
2013-05-05 15:03:00,58.4,52.6,29.96,North,356,3.5,3.5,81,0.00,BKN,OVC,0.00,0.0,WeatherDisplay:10.37,2013-05-05 14:03:00,
2013-05-05 15:08:00,58.4,52.6,29.96,SSW,198,3.5,3.5,81,0.00,BKN,OVC,0.00,0.0,WeatherDisplay:10.37,2013-05-05 14:08:00,
2013-05-05 15:13:00,58.4,52.6,29.96,ENE,70,3.5,3.5,81,0.00,BKN,OVC,0.00,0.0,WeatherDisplay:10.37,2013-05-05 14:13:00,
2013-05-05 15:18:00,58.5,52.7,29.96,NNE,19,3.5,3.5,81,0.00,BKN,OVC,0.00,0.0,WeatherDisplay:10.37,2013-05-05 14:18:00,
2013-05-05 15:23:00,58.6,52.8,29.95,ESE,113,4.0,4.0,81,0.00,BKN,OVC,0.00,0.0,WeatherDisplay:10.37,2013-05-05 14:23:00,
2013-05-05 15:28:00,58.6,52.8,29.95,ENE,73,2.3,2.3,81,0.00,BKN,OVC,0.00,0.0,WeatherDisplay:10.37,2013-05-05 14:28:00,
2013-05-05 15:33:00,58.7,52.9,29.95,South,179,3.5,3.5,81,0.00,-RA,OVC,0.00,0.0,WeatherDisplay:10.37,2013-05-05 14:33:00,
2013-05-05 15:38:00,59.0,53.2,29.95,West,279,4.6,4.6,81,0.00,-RA,OVC,0.00,0.0,WeatherDisplay:10.37,2013-05-05 14:38:00,
2013-05-05 15:43:00,59.1,53.3,29.95,SSE,155,3.5,3.5,81,0.00,-RA,OVC,0.00,0.0,WeatherDisplay:10.37,2013-05-05 14:43:00,
2013-05-05 15:48:00,59.2,53.0,29.95,SSE,165,3.5,3.5,80,0.00,-RA,OVC,0.00,0.0,WeatherDisplay:10.37,2013-05-05 14:48:00,
2013-05-05 15:53:00,59.3,53.1,29.95,ENE,70,3.5,3.5,80,0.00,-RA,OVC,0.00,0.0,WeatherDisplay:10.37,2013-05-05 14:53:00,
2013-05-05 15:58:00,59.3,53.1,29.95,NW,321,5.8,5.8,80,0.00,-RA,OVC,0.00,0.0,WeatherDisplay:10.37,2013-05-05 14:58:00,
2013-05-05 16:03:00,59.2,53.0,29.96,NNE,16,4.6,4.6,80,0.00,-RA,OVC,0.00,0.0,WeatherDisplay:10.37,2013-05-05 15:03:00,
2013-05-05 16:08:00,59.1,52.9,29.96,East,91,3.5,3.5,80,0.00,-RA,OVC,0.00,0.0,WeatherDisplay:10.37,2013-05-05 15:08:00,
2013-05-05 16:13:00,59.0,52.8,29.96,East,89,5.8,5.8,80,0.00,-RA,OVC,0.00,0.0,WeatherDisplay:10.37,2013-05-05 15:13:00,
2013-05-05 16:18:00,59.1,53.3,29.96,East,87,4.6,4.6,81,0.00,-RA,OVC,0.00,0.0,WeatherDisplay:10.37,2013-05-05 15:18:00,
2013-05-05 16:23:00,59.1,52.9,29.96,ESE,103,2.3,2.3,80,0.00,-RA,OVC,0.00,0.0,WeatherDisplay:10.37,2013-05-05 15:23:00,
2013-05-05 16:28:00,59.2,53.0,29.96,North,1,3.5,3.5,80,0.00,-RA,OVC,0.00,0.0,WeatherDisplay:10.37,2013-05-05 15:28:00,
2013-05-05 16:33:00,59.2,53.4,29.96,NNE,29,3.5,3.5,81,0.00,BKN,OVC,0.00,0.0,WeatherDisplay:10.37,2013-05-05 15:33:00,
2013-05-05 16:38:00,59.1,52.9,29.97,WSW,250,3.5,3.5,80,0.00,BKN,OVC,0.00,0.0,WeatherDisplay:10.37,2013-05-05 15:38:00,
2013-05-05 16:43:00,59.0,52.8,29.96,NW,326,3.5,3.5,80,0.00,BKN,OVC,0.00,0.0,WeatherDisplay:10.37,2013-05-05 15:43:00,
2013-05-05 16:48:00,59.0,52.8,29.97,NNW,336,3.5,3.5,80,0.00,BKN,OVC,0.00,0.0,WeatherDisplay:10.37,2013-05-05 15:48:00,
2013-05-05 16:53:00,59.0,52.8,29.97,North,4,3.5,3.5,80,0.00,BKN,OVC,0.00,0.0,WeatherDisplay:10.37,2013-05-05 15:53:00,
2013-05-05 16:58:00,58.8,52.6,29.97,South,184,2.3,2.3,80,0.00,BKN,OVC,0.00,0.0,WeatherDisplay:10.37,2013-05-05 15:58:00,
2013-05-05 17:03:00,58.7,52.5,29.97,East,99,3.5,3.5,80,0.00,BKN,OVC,0.00,0.0,WeatherDisplay:10.37,2013-05-05 16:03:00,
2013-05-05 17:08:00,58.6,52.4,29.97,NE,44,3.5,3.5,80,0.00,BKN,OVC,0.00,0.0,WeatherDisplay:10.37,2013-05-05 16:08:00,
2013-05-05 17:13:00,58.6,52.4,29.97,NNE,32,3.5,3.5,80,0.00,BKN,OVC,0.00,0.0,WeatherDisplay:10.37,2013-05-05 16:13:00,
2013-05-05 17:18:00,58.6,52.4,29.97,NNE,29,3.5,3.5,80,0.00,BKN,OVC,0.00,0.0,WeatherDisplay:10.37,2013-05-05 16:18:00,
2013-05-05 17:23:00,58.6,52.1,29.97,NNW,340,3.5,3.5,79,0.00,BKN,OVC,0.00,0.0,WeatherDisplay:10.37,2013-05-05 16:23:00,
2013-05-05 17:28:00,58.5,52.0,29.97,South,191,5.8,5.8,79,0.00,BKN,OVC,0.00,0.0,WeatherDisplay:10.37,2013-05-05 16:28:00,
2013-05-05 17:33:00,58.5,52.4,29.97,ENE,67,5.0,5.0,80,0.00,OVC,,0.00,0.0,WeatherDisplay:10.37,2013-05-05 16:33:00,
2013-05-05 17:38:00,58.5,52.4,29.97,East,84,3.5,3.5,80,0.00,OVC,,0.00,0.0,WeatherDisplay:10.37,2013-05-05 16:38:00,
2013-05-05 17:43:00,58.5,52.4,29.97,NW,321,3.5,3.5,80,0.00,OVC,,0.00,0.0,WeatherDisplay:10.37,2013-05-05 16:43:00,
2013-05-05 17:48:00,58.4,52.3,29.97,South,183,3.5,3.5,80,0.00,OVC,,0.00,0.0,WeatherDisplay:10.37,2013-05-05 16:48:00,
2013-05-05 17:53:00,58.2,52.4,29.97,NNW,329,3.5,3.5,81,0.00,OVC,,0.00,0.0,WeatherDisplay:10.37,2013-05-05 16:53:00,
2013-05-05 17:58:00,58.0,52.2,29.98,SE,126,3.5,3.5,81,0.00,OVC,,0.00,0.0,WeatherDisplay:10.37,2013-05-05 16:58:00,
2013-05-05 18:03:00,57.7,52.6,29.98,North,6,3.5,3.5,83,0.00,BKN,OVC,0.00,0.0,WeatherDisplay:10.37,2013-05-05 17:03:00,
2013-05-05 18:08:00,57.4,52.6,29.98,East,84,4.6,4.6,84,0.00,BKN,OVC,0.00,0.0,WeatherDisplay:10.37,2013-05-05 17:08:00,
2013-05-05 18:13:00,57.2,52.7,29.98,North,353,2.3,2.3,85,0.00,BKN,OVC,0.00,0.0,WeatherDisplay:10.37,2013-05-05 17:13:00,
2013-05-05 18:18:00,57.2,52.7,29.98,NE,40,3.5,3.5,85,0.00,BKN,OVC,0.00,0.0,WeatherDisplay:10.37,2013-05-05 17:18:00,
2013-05-05 18:23:00,57.1,52.6,29.98,SSW,207,2.3,2.6,85,0.00,BKN,OVC,0.00,0.0,WeatherDisplay:10.37,2013-05-05 17:23:00,
2013-05-05 18:28:00,57.1,52.6,29.98,South,169,3.5,3.5,85,0.00,BKN,OVC,0.00,0.0,WeatherDisplay:10.37,2013-05-05 17:28:00,
2013-05-05 18:33:00,57.0,52.2,29.98,East,82,2.3,2.3,84,0.00,BKN,OVC,0.00,0.0,WeatherDisplay:10.37,2013-05-05 17:33:00,
2013-05-05 18:38:00,57.1,52.3,29.98,WSW,252,2.3,2.3,84,0.00,BKN,OVC,0.00,0.0,WeatherDisplay:10.37,2013-05-05 17:38:00,
2013-05-05 18:43:00,57.2,52.1,29.98,ENE,68,2.3,2.3,83,0.00,BKN,OVC,0.00,0.0,WeatherDisplay:10.37,2013-05-05 17:43:00,
2013-05-05 18:48:00,57.4,52.3,29.98,East,101,3.5,3.5,83,0.00,BKN,OVC,0.00,0.0,WeatherDisplay:10.37,2013-05-05 17:48:00,
2013-05-05 18:53:00,57.3,51.5,29.98,NE,46,3.5,3.5,81,0.00,BKN,OVC,0.00,0.0,WeatherDisplay:10.37,2013-05-05 17:53:00,
2013-05-05 18:58:00,57.3,51.5,29.98,ESE,112,3.5,3.5,81,0.00,BKN,OVC,0.00,0.0,WeatherDisplay:10.37,2013-05-05 17:58:00,
2013-05-05 19:03:00,57.2,51.4,29.98,ESE,118,3.5,3.5,81,0.00,BKN,OVC,0.00,0.0,WeatherDisplay:10.37,2013-05-05 18:03:00,
2013-05-05 19:08:00,57.2,51.8,29.99,SE,141,2.3,2.3,82,0.00,BKN,OVC,0.00,0.0,WeatherDisplay:10.37,2013-05-05 18:08:00,
2013-05-05 19:13:00,57.1,51.7,29.99,West,271,3.5,3.5,82,0.00,BKN,OVC,0.00,0.0,WeatherDisplay:10.37,2013-05-05 18:13:00,
2013-05-05 19:18:00,56.9,51.5,29.99,South,169,3.5,3.5,82,0.00,BKN,OVC,0.00,0.0,WeatherDisplay:10.37,2013-05-05 18:18:00,
2013-05-05 19:24:00,56.8,51.4,29.99,NNE,19,2.3,2.3,82,0.00,BKN,OVC,0.00,0.0,WeatherDisplay:10.37,2013-05-05 18:24:00,
2013-05-05 19:29:00,56.7,51.3,29.99,NE,53,2.3,2.3,82,0.00,BKN,OVC,0.00,0.0,WeatherDisplay:10.37,2013-05-05 18:29:00,
2013-05-05 19:34:00,56.7,51.3,29.99,East,85,1.2,1.2,82,0.00,BKN,OVC,0.00,0.0,WeatherDisplay:10.37,2013-05-05 18:34:00,
2013-05-05 19:39:00,56.7,51.3,29.99,ENE,61,3.5,3.5,82,0.00,BKN,OVC,0.00,0.0,WeatherDisplay:10.37,2013-05-05 18:39:00,
2013-05-05 19:44:00,56.6,50.8,29.99,SSW,207,3.5,3.5,81,0.00,BKN,OVC,0.00,0.0,WeatherDisplay:10.37,2013-05-05 18:44:00,
2013-05-05 19:49:00,56.6,51.2,30.00,ENE,60,2.3,2.3,82,0.00,BKN,OVC,0.00,0.0,WeatherDisplay:10.37,2013-05-05 18:49:00,
2013-05-05 19:54:00,56.4,51.0,30.00,WNW,300,2.3,2.3,82,0.00,BKN,OVC,0.00,0.0,WeatherDisplay:10.37,2013-05-05 18:54:00,
2013-05-05 19:59:00,56.3,50.9,30.00,NNE,23,3.5,3.5,82,0.00,BKN,OVC,0.00,0.0,WeatherDisplay:10.37,2013-05-05 18:59:00,
2013-05-05 20:04:00,56.2,51.1,30.00,SW,222,2.3,2.3,83,0.00,BKN,OVC,0.00,0.0,WeatherDisplay:10.37,2013-05-05 19:04:00,
2013-05-05 20:09:00,56.2,51.1,30.00,SE,125,2.3,2.3,83,0.00,BKN,OVC,0.00,0.0,WeatherDisplay:10.37,2013-05-05 19:09:00,
2013-05-05 20:14:00,56.1,51.0,30.00,NE,51,2.3,2.3,83,0.00,BKN,OVC,0.00,0.0,WeatherDisplay:10.37,2013-05-05 19:14:00,
2013-05-05 20:19:00,56.0,50.9,30.00,NE,39,1.2,1.2,83,0.00,BKN,OVC,0.00,0.0,WeatherDisplay:10.37,2013-05-05 19:19:00,
2013-05-05 20:24:00,55.9,50.8,30.01,NNW,343,1.2,1.2,83,0.00,BKN,OVC,0.00,0.0,WeatherDisplay:10.37,2013-05-05 19:24:00,
2013-05-05 20:29:00,55.8,51.0,30.01,NNE,15,3.5,3.5,84,0.00,BKN,OVC,0.00,0.0,WeatherDisplay:10.37,2013-05-05 19:29:00,
2013-05-05 20:34:00,55.5,51.1,30.01,NNW,337,2.3,2.3,85,0.00,BKN,OVC,0.00,0.0,WeatherDisplay:10.37,2013-05-05 19:34:00,
2013-05-05 20:39:00,55.3,50.9,30.01,North,11,2.3,2.3,85,0.00,BKN,OVC,0.00,0.0,WeatherDisplay:10.37,2013-05-05 19:39:00,
2013-05-05 20:44:00,55.1,50.7,30.01,NNE,15,2.3,2.3,85,0.00,BKN,OVC,0.00,0.0,WeatherDisplay:10.37,2013-05-05 19:44:00,
2013-05-05 20:49:00,55.0,50.9,30.01,East,84,3.0,3.0,86,0.00,BKN,OVC,0.00,0.0,WeatherDisplay:10.37,2013-05-05 19:49:00,
2013-05-05 20:54:00,54.9,51.1,30.02,North,8,3.5,3.5,87,0.00,BKN,OVC,0.00,0.0,WeatherDisplay:10.37,2013-05-05 19:54:00,
2013-05-05 20:59:00,54.7,50.9,30.02,ENE,72,4.6,4.6,87,0.00,BKN,OVC,0.00,0.0,WeatherDisplay:10.37,2013-05-05 19:59:00,
2013-05-05 21:04:00,54.4,50.9,30.02,NE,47,2.3,2.3,88,0.00,BKN,OVC,0.00,0.0,WeatherDisplay:10.37,2013-05-05 20:04:00,
2013-05-05 21:09:00,54.3,50.8,30.02,NNW,336,1.2,1.2,88,0.00,BKN,OVC,0.00,0.0,WeatherDisplay:10.37,2013-05-05 20:09:00,
2013-05-05 21:14:00,54.2,50.4,30.02,North,6,1.2,1.2,87,0.00,BKN,OVC,0.00,0.0,WeatherDisplay:10.37,2013-05-05 20:14:00,
2013-05-05 21:19:00,54.2,50.4,30.02,ESE,102,2.3,2.3,87,0.00,BKN,OVC,0.00,0.0,WeatherDisplay:10.37,2013-05-05 20:19:00,
2013-05-05 21:24:00,54.2,50.4,30.02,NNE,23,1.2,1.2,87,0.00,BKN,OVC,0.00,0.0,WeatherDisplay:10.37,2013-05-05 20:24:00,
2013-05-05 21:29:00,54.2,50.1,30.02,North,9,1.2,1.2,86,0.00,BKN,OVC,0.00,0.0,WeatherDisplay:10.37,2013-05-05 20:29:00,
2013-05-05 21:34:00,54.1,50.0,30.02,NE,42,1.2,0.0,86,0.00,BKN,OVC,0.00,0.0,WeatherDisplay:10.37,2013-05-05 20:34:00,
2013-05-05 21:39:00,54.1,50.0,30.02,NNE,27,1.2,1.2,86,0.00,BKN,OVC,0.00,0.0,WeatherDisplay:10.37,2013-05-05 20:39:00,
2013-05-05 21:44:00,54.0,49.9,30.02,West,280,2.3,2.3,86,0.00,BKN,OVC,0.00,0.0,WeatherDisplay:10.37,2013-05-05 20:44:00,
2013-05-05 21:49:00,53.9,49.8,30.02,East,79,3.5,3.5,86,0.00,BKN,OVC,0.00,0.0,WeatherDisplay:10.37,2013-05-05 20:49:00,
2013-05-05 21:54:00,53.9,49.8,30.02,NNE,27,1.2,1.2,86,0.00,BKN,OVC,0.00,0.0,WeatherDisplay:10.37,2013-05-05 20:54:00,
2013-05-05 21:59:00,53.8,49.7,30.02,East,81,1.2,1.2,86,0.00,BKN,OVC,0.00,0.0,WeatherDisplay:10.37,2013-05-05 20:59:00,
2013-05-05 22:04:00,53.7,49.6,30.02,SW,231,2.3,2.3,86,0.00,SCT,OVC,0.00,0.0,WeatherDisplay:10.37,2013-05-05 21:04:00,
2013-05-05 22:09:00,53.8,49.7,30.02,NW,326,2.0,2.0,86,0.00,SCT,OVC,0.00,0.0,WeatherDisplay:10.37,2013-05-05 21:09:00,
2013-05-05 22:14:00,53.7,49.6,30.02,NNW,338,0.0,0.0,86,0.00,SCT,OVC,0.00,0.0,WeatherDisplay:10.37,2013-05-05 21:14:00,
2013-05-05 22:19:00,53.8,49.7,30.02,ENE,58,1.2,0.0,86,0.00,SCT,OVC,0.00,0.0,WeatherDisplay:10.37,2013-05-05 21:19:00,
2013-05-05 22:24:00,53.8,49.7,30.02,SSW,194,0.0,0.0,86,0.00,SCT,OVC,0.00,0.0,WeatherDisplay:10.37,2013-05-05 21:24:00,
2013-05-05 22:29:00,53.8,49.7,30.02,SE,129,0.0,0.0,86,0.00,SCT,OVC,0.00,0.0,WeatherDisplay:10.37,2013-05-05 21:29:00,
2013-05-05 22:34:00,53.7,49.6,30.02,SE,126,2.3,2.3,86,0.00,CLR,OVC,0.00,0.0,WeatherDisplay:10.37,2013-05-05 21:34:00,
2013-05-05 22:39:00,53.7,49.6,30.02,SSW,204,1.2,1.2,86,0.00,CLR,OVC,0.00,0.0,WeatherDisplay:10.37,2013-05-05 21:39:00,
2013-05-05 22:44:00,53.8,49.7,30.02,SE,143,1.2,1.2,86,0.00,CLR,OVC,0.00,0.0,WeatherDisplay:10.37,2013-05-05 21:44:00,
2013-05-05 22:49:00,53.8,49.7,30.02,West,269,3.5,3.5,86,0.00,CLR,OVC,0.00,0.0,WeatherDisplay:10.37,2013-05-05 21:49:00,
2013-05-05 22:54:00,53.8,49.7,30.02,SSE,155,3.5,3.5,86,0.00,CLR,OVC,0.00,0.0,WeatherDisplay:10.37,2013-05-05 21:54:00,
2013-05-05 22:59:00,53.8,49.7,30.02,SSE,154,3.0,3.0,86,0.00,CLR,OVC,0.00,0.0,WeatherDisplay:10.37,2013-05-05 21:59:00,
2013-05-05 23:04:00,53.8,49.7,30.03,ENE,77,2.3,2.3,86,0.00,CLR,OVC,0.00,0.0,WeatherDisplay:10.37,2013-05-05 22:04:00,
2013-05-05 23:09:00,53.8,49.7,30.03,NNE,16,1.2,1.2,86,0.00,CLR,OVC,0.00,0.0,WeatherDisplay:10.37,2013-05-05 22:09:00,
2013-05-05 23:14:00,53.8,49.7,30.03,SSE,148,2.3,2.3,86,0.00,CLR,OVC,0.00,0.0,WeatherDisplay:10.37,2013-05-05 22:14:00,
2013-05-05 23:19:00,53.7,49.6,30.03,SE,129,1.2,1.2,86,0.00,CLR,OVC,0.00,0.0,WeatherDisplay:10.37,2013-05-05 22:19:00,
2013-05-05 23:24:00,53.7,49.6,30.03,South,174,3.5,3.5,86,0.00,CLR,OVC,0.00,0.0,WeatherDisplay:10.37,2013-05-05 22:24:00,
2013-05-05 23:29:00,53.6,49.5,30.03,SE,126,2.3,2.3,86,0.00,CLR,OVC,0.00,0.0,WeatherDisplay:10.37,2013-05-05 22:29:00,
2013-05-05 23:34:00,53.6,49.5,30.03,SSE,155,1.2,1.2,86,0.00,BKN,OVC,0.00,0.0,WeatherDisplay:10.37,2013-05-05 22:34:00,
2013-05-05 23:39:00,53.6,49.2,30.02,WSW,250,5.8,5.8,85,0.00,BKN,OVC,0.00,0.0,WeatherDisplay:10.37,2013-05-05 22:39:00,
2013-05-05 23:44:00,53.7,49.3,30.02,South,169,3.5,3.5,85,0.00,BKN,OVC,0.00,0.0,WeatherDisplay:10.37,2013-05-05 22:44:00,
2013-05-05 23:49:00,53.6,49.2,30.02,SE,137,1.2,1.2,85,0.00,BKN,OVC,0.00,0.0,WeatherDisplay:10.37,2013-05-05 22:49:00,
2013-05-05 23:54:00,53.6,49.2,30.02,SE,139,3.5,3.5,85,0.00,BKN,OVC,0.00,0.0,WeatherDisplay:10.37,2013-05-05 22:54:00,
2013-05-05 23:59:00,53.6,49.2,30.02,SSW,202,3.5,3.5,85,0.00,BKN,OVC,0.00,0.0,WeatherDisplay:10.37,2013-05-05 22:59:00,